Location: El Gallo
(32.4380°N, 116.9347°W)
Time: 20:38:35
(UTC+00:00)

Meteor 1-19 Rocket - Pass Details

Date: 01 October 2022
Orbit: 812 x 922 km, 81.2° (Epoch: 02 December)

Event Time Altitude Azimuth Distance (km) Brightness Sun altitude
Rises 12:26:00 0° 199° (SSW) 3,358 7.1 -16.8°
Reaches altitude 10° 12:28:28 10° 204° (SSW) 2,416 6.3 -16.3°
Maximum altitude 12:33:47 52° 280° (W) 1,002 4.2 -15.2°
Drops below altitude 10° 12:39:03 10° 357° (N) 2,404 6.6 -14.1°
Sets 12:41:31 0° 2° (N) 3,339 7.4 -13.6°
